Simultaneous Nadir Overpasses (SNOs) Predictions

Prediction of SNOs between LANDSAT-8 and NPP Satellite Orbit:

Table of predicted SNOs for the next 14.0 days since TLE Epoch: 8/18/2018
Index Date (LANDSAT-8) Time (LANDSAT-8) Lat,Lon (LANDSAT-8) SZA (LANDSAT-8 ) Date (NPP) Time (NPP) Lat,Lon (NPP) SZA (NPP ) Distance(km) Time Diff (sec)
1 08/18/2018 13:51:40 70.97, -30.33 57.91 08/18/2018 13:50:33 71.01, -32.66 58.03 84.61 67
2 08/18/2018 14:41:23 -70.14, 136.07 122.88 08/18/2018 14:41:00 -70.12, 136.08 122.89 1.98 23
3 08/18/2018 15:30:50 70.04, -56.43 57.04 08/18/2018 15:31:44 70.01, -56.44 57.01 3.50 54
4 08/21/2018 06:08:23 70.22, 84.43 58.06 08/21/2018 06:07:14 70.23, 84.37 58.08 2.18 69
5 08/21/2018 06:57:53 -70.11,-108.10 122.04 08/21/2018 06:57:56 -70.12,-108.15 122.02 2.89 3
6 08/21/2018 07:47:24 69.78, 59.09 57.67 08/21/2018 07:48:35 69.75, 59.72 57.61 24.28 71
7 08/23/2018 22:24:54 70.18,-159.75 58.92 08/23/2018 22:24:10 70.18,-159.79 58.93 1.54 44
8 08/23/2018 23:14:24 -70.07, 7.72 121.18 08/23/2018 23:14:52 -70.08, 7.69 121.17 1.75 28
9 08/26/2018 13:51:44 -71.00, 149.72 119.38 08/26/2018 13:50:37 -71.02, 147.30 119.28 87.52 67
10 08/26/2018 14:41:25 70.13, -43.94 59.79 08/26/2018 14:41:06 70.14, -43.96 59.81 1.16 19
11 08/26/2018 15:30:55 -70.03, 123.55 120.30 08/26/2018 15:31:48 -70.03, 123.52 120.30 1.05 53
12 08/29/2018 06:08:29 -70.20, -95.61 119.22 08/29/2018 06:07:18 -70.20, -95.59 119.21 0.81 71
13 08/29/2018 06:57:56 70.08, 71.87 60.69 08/29/2018 06:58:02 70.10, 71.87 60.70 1.70 6
14 08/29/2018 07:47:29 -69.82,-120.87 119.56 08/29/2018 07:48:41 -69.83,-120.41 119.57 17.65 72
15 08/31/2018 22:24:59 -70.15, 20.20 118.32 08/31/2018 22:24:13 -70.16, 20.24 118.30 1.79 46
16 08/31/2018 23:14:26 70.03,-172.32 61.59 08/31/2018 23:14:57 70.06,-172.31 61.62 3.28 31




NCC Satellite Simultaneous Nadir Overpasses (SNOs) Prediction Service
